Time,TemperatureF,DewpointF,PressureIn,WindDirection,WindDirectionDegrees,WindSpeedMPH,WindSpeedGustMPH,Humidity,HourlyPrecipIn,Conditions,Clouds,dailyrainin,SoftwareType,DateUTC
2013-06-22 08:41:00,77.0,38.5,30.27,SSE,157,4.3,4.3,25,0.00,,---,0.00,VWS V14.01,2013-06-22 12:41:00,
2013-06-22 08:42:00,77.0,38.5,30.27,WSW,257,5.7,5.7,25,0.00,,---,0.00,VWS V14.01,2013-06-22 12:42:00,
2013-06-22 08:43:00,76.8,38.4,30.27,SSW,197,8.6,8.6,25,0.00,,---,0.00,VWS V14.01,2013-06-22 12:43:00,
2013-06-22 08:45:00,76.6,39.2,30.27,SSW,200,5.7,8.6,26,0.00,,---,0.00,VWS V14.01,2013-06-22 12:45:00,
2013-06-22 08:50:00,76.1,39.7,30.27,SW,218,5.0,7.9,27,0.00,,---,0.00,VWS V14.01,2013-06-22 12:50:00,
2013-06-22 08:55:00,75.7,40.3,30.27,SW,224,5.0,9.3,28,0.00,,---,0.00,VWS V14.01,2013-06-22 12:55:00,
2013-06-22 09:01:00,75.4,41.0,30.27,SW,223,0.0,6.4,29,0.00,,---,0.00,VWS V14.01,2013-06-22 13:01:00,
2013-06-22 09:06:00,75.2,40.8,30.27,SW,220,0.0,6.4,29,0.00,,---,0.00,VWS V14.01,2013-06-22 13:06:00,
2013-06-22 09:11:00,75.4,41.8,30.27,South,169,5.0,8.6,30,0.00,,---,0.00,VWS V14.01,2013-06-22 13:11:00,
2013-06-22 09:16:00,75.6,42.0,30.27,South,179,5.0,5.7,30,0.00,,---,0.00,VWS V14.01,2013-06-22 13:16:00,
2013-06-22 09:21:00,75.6,42.0,30.27,South,186,5.0,5.0,30,0.00,,---,0.00,VWS V14.01,2013-06-22 13:21:00,
2013-06-22 09:27:00,75.9,43.1,30.27,SSE,168,8.6,8.6,31,0.00,,---,0.00,VWS V14.01,2013-06-22 13:27:00,
2013-06-22 09:32:00,76.1,43.3,30.27,West,274,0.0,8.6,31,0.00,,---,0.00,VWS V14.01,2013-06-22 13:32:00,
2013-06-22 09:38:00,76.3,43.5,30.27,SW,236,3.6,5.7,31,0.00,,---,0.00,VWS V14.01,2013-06-22 13:38:00,
2013-06-22 09:43:00,76.5,43.6,30.27,South,186,0.0,0.0,31,0.00,,---,0.00,VWS V14.01,2013-06-22 13:43:00,
2013-06-22 09:49:00,76.6,43.8,30.27,SSE,164,5.0,10.0,31,0.00,,---,0.00,VWS V14.01,2013-06-22 13:49:00,
2013-06-22 09:55:00,77.0,43.2,30.27,WSW,243,7.9,9.3,30,0.00,,---,0.00,VWS V14.01,2013-06-22 13:55:00,
2013-06-22 10:00:00,77.2,43.4,30.27,ENE,72,0.0,6.4,30,0.00,,---,0.00,VWS V14.01,2013-06-22 14:00:00,
2013-06-22 10:06:00,77.4,43.5,30.27,SSW,195,10.0,12.9,30,0.00,,---,0.00,VWS V14.01,2013-06-22 14:06:00,
2013-06-22 10:11:00,77.5,43.7,30.27,SSW,205,5.7,7.9,30,0.00,,---,0.00,VWS V14.01,2013-06-22 14:11:00,
2013-06-22 10:17:00,77.5,43.7,30.27,SW,230,8.6,8.6,30,0.00,,---,0.00,VWS V14.01,2013-06-22 14:17:00,
2013-06-22 10:22:00,77.5,43.7,30.27,WSW,245,0.0,5.7,30,0.00,,---,0.00,VWS V14.01,2013-06-22 14:22:00,
2013-06-22 10:27:00,77.7,43.8,30.27,West,269,4.3,8.6,30,0.00,,---,0.00,VWS V14.01,2013-06-22 14:27:00,
2013-06-22 10:32:00,77.9,44.0,30.27,ESE,112,0.0,0.0,30,0.00,,---,0.00,VWS V14.01,2013-06-22 14:32:00,
2013-06-22 10:38:00,78.3,44.3,30.27,WSW,240,0.0,0.0,30,0.00,,---,0.00,VWS V14.01,2013-06-22 14:38:00,
2013-06-22 10:43:00,78.4,44.5,30.27,SSW,196,0.0,0.0,30,0.00,,---,0.00,VWS V14.01,2013-06-22 14:43:00,
2013-06-22 10:48:00,78.8,44.8,30.27,West,273,5.7,8.6,30,0.00,,---,0.00,VWS V14.01,2013-06-22 14:48:00,
2013-06-22 10:53:00,79.0,44.0,30.27,South,175,0.0,0.0,29,0.00,,---,0.00,VWS V14.01,2013-06-22 14:53:00,
2013-06-22 10:59:00,79.2,43.3,30.27,SW,214,0.0,0.0,28,0.00,,---,0.00,VWS V14.01,2013-06-22 14:59:00,
2013-06-22 11:04:00,79.3,43.4,30.27,West,272,9.3,9.3,28,0.00,,---,0.00,VWS V14.01,2013-06-22 15:04:00,
2013-06-22 11:10:00,79.5,42.6,30.27,East,88,0.0,0.0,27,0.00,,---,0.00,VWS V14.01,2013-06-22 15:10:00,
2013-06-22 11:15:00,79.5,42.6,30.27,SSE,166,5.0,10.0,27,0.00,,---,0.00,VWS V14.01,2013-06-22 15:15:00,
2013-06-22 11:21:00,79.9,43.0,30.27,East,83,3.6,6.4,27,0.00,,---,0.00,VWS V14.01,2013-06-22 15:21:00,
2013-06-22 11:26:00,80.1,42.1,30.27,West,275,0.0,9.3,26,0.00,,---,0.00,VWS V14.01,2013-06-22 15:26:00,
2013-06-22 11:31:00,80.2,41.3,30.27,South,189,0.0,0.0,25,0.00,,---,0.00,VWS V14.01,2013-06-22 15:31:00,
2013-06-22 11:37:00,80.4,42.4,30.27,SSW,206,3.6,9.3,26,0.00,,---,0.00,VWS V14.01,2013-06-22 15:37:00,
2013-06-22 11:42:00,81.0,42.9,30.27,South,178,5.0,7.2,26,0.00,,---,0.00,VWS V14.01,2013-06-22 15:42:00,
2013-06-22 11:48:00,81.5,43.3,30.27,SSE,165,0.0,5.7,26,0.00,,---,0.00,VWS V14.01,2013-06-22 15:48:00,
2013-06-22 11:54:00,82.0,41.7,30.27,SSW,200,0.0,5.7,24,0.00,,---,0.00,VWS V14.01,2013-06-22 15:54:00,
2013-06-22 12:00:00,82.6,41.1,30.27,South,174,9.3,9.3,23,0.00,,---,0.00,VWS V14.01,2013-06-22 16:00:00,
2013-06-22 12:06:00,82.9,41.4,30.27,WSW,243,0.0,6.4,23,0.00,,---,0.00,VWS V14.01,2013-06-22 16:06:00,
2013-06-22 12:12:00,82.9,39.0,30.27,South,173,5.0,5.0,21,0.00,,---,0.00,VWS V14.01,2013-06-22 16:12:00,
2013-06-22 12:17:00,83.1,39.2,30.27,SSW,196,4.3,4.3,21,0.00,,---,0.00,VWS V14.01,2013-06-22 16:17:00,
2013-06-22 12:23:00,83.1,39.2,30.27,South,187,5.0,5.0,21,0.00,,---,0.00,VWS V14.01,2013-06-22 16:23:00,
2013-06-22 12:28:00,83.1,39.2,30.27,SSW,196,6.4,6.4,21,0.00,,---,0.00,VWS V14.01,2013-06-22 16:28:00,
2013-06-22 12:34:00,83.1,39.2,30.27,SSW,199,4.3,4.3,21,0.00,,---,0.00,VWS V14.01,2013-06-22 16:34:00,
2013-06-22 12:40:00,83.1,39.2,30.27,West,280,0.0,0.0,21,0.00,,---,0.00,VWS V14.01,2013-06-22 16:40:00,
2013-06-22 12:45:00,83.1,39.2,30.27,West,280,0.0,0.0,21,0.00,,---,0.00,VWS V14.01,2013-06-22 16:45:00,
2013-06-22 12:51:00,83.1,39.2,30.27,South,172,7.9,7.9,21,0.00,,---,0.00,VWS V14.01,2013-06-22 16:51:00,
2013-06-22 12:57:00,83.1,39.2,30.27,South,180,4.3,4.3,21,0.00,,---,0.00,VWS V14.01,2013-06-22 16:57:00,
2013-06-22 13:02:00,83.1,39.2,30.27,SSE,159,5.0,5.0,21,0.00,,---,0.00,VWS V14.01,2013-06-22 17:02:00,
2013-06-22 13:08:00,83.1,39.2,30.27,SW,225,4.3,4.3,21,0.00,,---,0.00,VWS V14.01,2013-06-22 17:08:00,
2013-06-22 13:13:00,83.1,39.2,30.27,SSW,211,12.9,12.9,21,0.00,,---,0.00,VWS V14.01,2013-06-22 17:13:00,
2013-06-22 13:19:00,83.1,39.2,30.27,SSW,211,12.9,12.9,21,0.00,,---,0.00,VWS V14.01,2013-06-22 17:19:00,
2013-06-22 13:24:00,83.1,39.2,30.27,SE,136,6.4,6.4,21,0.00,,---,0.00,VWS V14.01,2013-06-22 17:24:00,
2013-06-22 13:29:00,83.1,39.2,30.27,SE,136,6.4,6.4,21,0.00,,---,0.00,VWS V14.01,2013-06-22 17:29:00,
2013-06-22 13:35:00,83.1,39.2,30.27,SE,145,13.2,13.2,21,0.00,,---,0.00,VWS V14.01,2013-06-22 17:35:00,
2013-06-22 13:40:00,83.1,39.2,30.27,SW,230,9.3,9.3,21,0.00,,---,0.00,VWS V14.01,2013-06-22 17:40:00,
2013-06-22 13:46:00,83.1,39.2,30.24,West,266,9.3,9.3,21,0.00,,---,0.00,VWS V14.01,2013-06-22 17:46:00,
2013-06-22 13:51:00,83.1,39.2,30.24,South,187,4.3,4.3,21,0.00,,---,0.00,VWS V14.01,2013-06-22 17:51:00,
2013-06-22 13:57:00,83.1,39.2,30.24,East,87,0.0,0.0,21,0.00,,---,0.00,VWS V14.01,2013-06-22 17:57:00,
2013-06-22 14:02:00,83.1,39.2,30.24,East,87,0.0,0.0,21,0.00,,---,0.00,VWS V14.01,2013-06-22 18:02:00,
2013-06-22 14:08:00,83.1,39.2,30.24,East,87,0.0,0.0,21,0.00,,---,0.00,VWS V14.01,2013-06-22 18:08:00,
2013-06-22 14:14:00,83.1,39.2,30.24,East,87,0.0,0.0,21,0.00,,---,0.00,VWS V14.01,2013-06-22 18:14:00,
2013-06-22 14:19:00,83.1,39.2,30.24,East,87,0.0,0.0,21,0.00,,---,0.00,VWS V14.01,2013-06-22 18:19:00,
2013-06-22 14:25:00,83.1,39.2,30.24,East,87,0.0,0.0,21,0.00,,---,0.00,VWS V14.01,2013-06-22 18:25:00,
2013-06-22 14:30:00,83.1,39.2,30.24,East,87,0.0,0.0,21,0.00,,---,0.00,VWS V14.01,2013-06-22 18:30:00,
2013-06-22 14:36:00,83.1,39.2,30.24,East,87,0.0,0.0,21,0.00,,---,0.00,VWS V14.01,2013-06-22 18:36:00,
2013-06-22 14:42:00,83.1,39.2,30.24,East,87,0.0,0.0,21,0.00,,---,0.00,VWS V14.01,2013-06-22 18:42:00,
2013-06-22 14:47:00,83.1,39.2,30.24,East,87,0.0,0.0,21,0.00,,---,0.00,VWS V14.01,2013-06-22 18:47:00,
2013-06-22 14:52:00,83.1,39.2,30.24,East,87,0.0,0.0,21,0.00,,---,0.00,VWS V14.01,2013-06-22 18:52:00,
2013-06-22 14:58:00,83.1,39.2,30.24,East,87,0.0,0.0,21,0.00,,---,0.00,VWS V14.01,2013-06-22 18:58:00,